Regional Weather Roundup
Issued by NWS

Home | Current Version | Previous Version | Text Only | Print | Product List | Glossary On
Versions: 1 2 3 4 5 6 7 8 9 10 11 12 13 14 15 16 17 18 19 20 21 22 23 24 25 26 27 28 29 30 31 32 33 34 35 36 37 38 39 40 41 42 43 44 45 46 47 48 49 50
395
ASHW40 PHFO 261143
RWRHI

WEATHER ROUNDUP FOR HAWAII
NATIONAL WEATHER SERVICE HONOLULU HI
100 AM HST SUN MAR 26 2017

THIS IS AN AUTOMATED REPORT THAT HAS NOT BEEN QUALITY CONTROLLED.

NOTE..."FAIR" INDICATES FEW OR NO CLOUDS BELOW 12,000 FEET WITH NO
SIGNIFICANT WEATHER AND/OR OBSTRUCTIONS TO VISIBILITY.

* - THESE SITES REPORT LIMITED FIELDS

HIZ001>004-261200-
KAUAI-NIIHAU-

CITY           SKY/WX    TMP DP  RH WIND       PRES   REMARKS
LIHUE APT      PTCLDY    74  67  78 NE13      30.22F
PORT ALLEN*      N/A     73 N/A N/A E15G21      N/A
POIPU*           N/A     73 N/A N/A NE9G20      N/A
PRINCEVILLE*     N/A     72 N/A N/A SE3         N/A
KOKOLE POINT*  NOT AVBL
MOLOAA DAIRY*    N/A     73  66  78 E5G14       N/A
WAIMEA HTS*      N/A     70  66  88 NW5         N/A
PUU OPAE*      NOT AVBL
PUU LUA*       NOT AVBL
MAKAHA RIDGE*    N/A     64  63  94 S1          N/A
$$

HIZ005>011-261200-
OAHU-

CITY           SKY/WX    TMP DP  RH WIND       PRES   REMARKS
HONOLULU       PTCLDY    75  63  66 NE10      30.18F
KALAELOA       CLEAR     74  64  71 E6        30.20F
KANEOHE MCB    NOT AVBL
WHEELER FIELD  FAIR      71  63  75 E8        30.20
BELLOWS*         N/A    N/A N/A N/A NE17        N/A
KAHUKU*          N/A    N/A N/A N/A NE12G21     N/A
WHEELER*         N/A    N/A N/A N/A E5G13       N/A
WAIANAE HARBOR   N/A    N/A N/A N/A NE3         N/A
DILLINGHAM*      N/A     88  82  84 NW2         N/A  HX 108
KAHUKU TRN*      N/A     82  75  78 W10G24      N/A
KAWAILOA*        N/A     70  63  78 E13G22      N/A
KII*             N/A     75  66  73 E18G26      N/A
MAKUA RANGE*     N/A     72  63  73 W5G15       N/A
OAHU FOREST NW   N/A     66  61  82 CALM        N/A
SCHOFIELD BRK*   N/A     70  66  88 MISG        N/A
SCHOFIELD S*   NOT AVBL
WAIANAE VLY*     N/A     88  79  74 SW2G10      N/A  HX 102
KUAOKALA*        N/A     70   0   6 NE9G24      N/A
HONOULIUULI*   NOT AVBL
MOKUOLOE IS*   NOT AVBL
PALEHUA*         N/A    N/A N/A N/A NE14G26     N/A
WAIAWA PHB*    NOT AVBL
$$

HIZ012>013-261200-
MOLOKAI-

CITY           SKY/WX    TMP DP  RH WIND       PRES   REMARKS
MOLOKAI AIRPT  CLEAR     74  64  71 NE10G22   30.18F
KALAUPAPA      NOT AVBL
MAKAPULAPAI*     N/A     75  66  73 E21G29      N/A
MOLOKAI 1*       N/A     64  55  72 E7G22       N/A
PUU ALII*        N/A     56  55  96 S2G12       N/A
$$

HIZ016-261200-
KAHOOLAWE-

CITY           SKY/WX    TMP DP  RH WIND       PRES   REMARKS
KAHOOLAWE*     NOT AVBL
HAKIOAWA*        N/A     68  64  86 MISG      30.58F
HONOKANAIA*      N/A     74  62  65 NE15G30   30.11F
KANELOA*         N/A     72  61  68 NE18G35   30.23F
KEALIALALO*    NOT AVBL
LUA MAKIKA*    NOT AVBL
$$

HIZ014>015-261200-
LANAI-

CITY           SKY/WX    TMP DP  RH WIND       PRES   REMARKS
LANAI CITY     FAIR      68  63  84 NE16      30.20F
LANAI 1*       NOT AVBL
$$

HIZ017>028-261200-
MAUI-

CITY           SKY/WX    TMP DP  RH WIND       PRES   REMARKS
KAHULUI        CLEAR     72  63  73 NE15      30.15F
KAPALUA-W MAUI NOT AVBL
HANA AIRPORT   CLOUDY    73  66  78 E3        30.22F
HANA*            N/A     73 N/A N/A SE5         N/A
HALEAKALA SUMM   N/A     41  16  36 E22G47      N/A
MAALAEA BAY*     N/A     75 N/A N/A N18G29      N/A
HALEAKALA*     NOT AVBL
KAUPO GAP*       N/A     81  48  32 N9G24       N/A
KULA 1*          N/A    N/A N/A N/A NE7G23      N/A
$$

HIZ023>026-261200-
BIG ISLAND OF HAWAII COAST AND LOWER SLOPES-

CITY           SKY/WX    TMP DP  RH WIND       PRES   REMARKS
KAILUA KONA    CLOUDY    74  64  71 NE3       30.13F
HILO           PTCLDY    68  59  73 W8        30.21F
HONOKAA*         N/A     66 N/A N/A VRB1        N/A
KAWAIHAE MWT*    N/A     75 N/A N/A NE1         N/A
KAWAIHAE*        N/A     75 N/A N/A N3        30.14F
SOUTH POINT*     N/A     70 N/A N/A N14G20      N/A
UPOLU AIRPORT* NOT AVBL
KAMUELA*       SUNNY     61  57  88 E13       30.23F
HAKALAU*         N/A    N/A N/A N/A W5          N/A
KALOKO-HONOKO*   N/A     73  64  73 NE3       30.12F
PALI 2*          N/A     63  50  63 S13G20      N/A
KEALAKOMO*       N/A     73  63  68 VRB16G26    N/A
KAUPULEHU*       N/A     66  61  82 SE6         N/A
KAPAPALA*        N/A     57  51  80 N5          N/A
LOWER KAHUKU*    N/A     57  55  94 N3G12       N/A
PUHE CS*         N/A     75  66  73 N2          N/A
PUHO CS*         N/A     75  61  60 E3          N/A
PTA KEAMUKU*     N/A     57  54  88 CALM        N/A
WAIKOLOA*        N/A     64  55  72 E8          N/A
$$

HIZ027>028-261200-
BIG ISLAND OF HAWAII INTERIOR AND SUMMMITS-

CITY           SKY/WX    TMP DP  RH WIND       PRES   REMARKS
BRADSHAW FIELD PTCLDY    56  25  29 SE17      30.44F
MK VISITOR CEN   N/A     46  14  27 E18         N/A
MAUNA KEA*       N/A     27   3  36 NE28        N/A  WCI  11
MAUNA LOA*       N/A     37   3  23 MISG        N/A
MAUNA LOA 1*   NOT AVBL
PTA KIPUKA*      N/A    N/A N/A N/A E17G32      N/A
PTA RANGE 17*    N/A     75  39  27 SE17G29     N/A
PTA WEST*        N/A    N/A N/A N/A E16G41      N/A
NENE CABIN*      N/A    N/A N/A N/A E13G23      N/A
AHUMOA*          N/A    N/A N/A N/A NE3G9       N/A
PTA PORTABLE*  NOT AVBL
PUU MALI*        N/A    N/A N/A N/A E17G36      N/A
$$

HIC003-261200-
NORTHWEST ISLANDS-

CITY           SKY/WX    TMP DP  RH WIND       PRES   REMARKS
MIDWAY ISLAND  PTCLDY    72  66  83 SW7       30.13F
MIDWAY NOS*      N/A     70 N/A N/A MISG      30.10F
FRENCH FRIGATE NOT AVBL
$$

PHZ110>124-180-261200-
BUOY REPORTS

STATION/POSITION TIME  TEMP    WIND        PRES    WAVE   SWELL
                       AIR SEA DIR/SP/G            HT/PER HT/DIR
                 (UTC) (F)     (DEG/KT/KT) (MB)    (FT/S) (FT/D)
BUOY 51001       1120   74 76  100/ 14/ 19 1023.4
BUOY 51101       1050   75 76  100/ 14/ 19 1024.0F  11/16  10/290
BUOY 51100       NOT AVBL
BUOY 51002       1120   78 78   80/ 19/ 23 1019.0
BUOY 51003       1050   77 78   90/ 10/ 14 1020.7F  10/17  10/300
BUOY 51004       1050      77   60/ 21/ 25 1019.6F  10/10   7/100
BARBERS PT BUOY  NOT AVBL
WAIMEA BAY BUOY  1102      75                N/A    12/18  11/310
KAILUA BAY BUOY  1104      76                N/A     7/ 7   2/130
LANAI BUOY       1115      78                N/A     4/18   3/260
BARBERS PT 2     NOT AVBL
PAUWELA MAUI     1109      76                N/A     6/18   3/310
HILO             1112      78                N/A     7/ 9   2/ 40
KANEOHE BAY BUOY 1125      76                N/A     5/ 7   2/350
HANALEI KAUAI    1122      77                N/A     9/18   8/300
KAHULUI HARBOR   1118           20/ 18/ 22   N/A
HONOLULU HARBOR  1118   76 78  110/  2/  5 1022.6
KILO NALU        NOT AVBL
HILO HARBOR      1118          210/  5/  6   N/A
MOKUOLOE         1036   76 79   70/ 11/ 14 1023.1F
NAWILIWILI       1118   74      30/  9/ 10 1022.7
WHOTS BUOY       NOT AVBL
BUOY 51028       NOT AVBL
$$

......................KEY........................................
  SKY/WX - SKY CONDITIONS/PRESENT WEATHER
  TMP    - TEMPERATURE IN FAHRENHEIT
  DWPT   - DEWPOINT IN FAHRENHEIT
  RH     - RELATIVE HUMIDITY IN PERCENT
  WIND   - DIRECTION AND SPEED /MPH FOR ISLANDS...KTS FOR BUOYS/
  PRES   - MEAN SEA LEVEL PRESSURE IN INCHES OF HG
  VSB    - VISIBILITY IN MILES
  HX     - HEAT INDEX
  WCI    - WIND CHILL INDEX
  VRB    - VARIABLE WIND DIRECTION
  N/A    - NOT AVAILABLE




USA.gov is the U.S. government's official web portal to all federal, state and local government web resources and services.